Las Vegas, NV

7:34 PM PDT on May 29, 2017 (GMT -0700)
McCarran International

Weather History for KLAS - December, 2011

Change the Weather History Date:

Wednesday, December 7, 2011

  Actual Average Record
Temperature  
Mean Temperature 43 °F 48 °F  
Max Temperature 54 °F 57 °F 76 °F (1938)
Min Temperature 31 °F 39 °F 21 °F (1948)
Degree Days  
Heating Degree Days 22 17  
Month to date heating degree days 149 111  
Since 1 July heating degree days 481 420  
Cooling Degree Days 0 0  
Month to date cooling degree days 0 0  
Year to date cooling degree days 3540 3568  
Moisture  
Dew Point 9 °F    
Average Humidity 26    
Maximum Humidity 35    
Minimum Humidity 16    
Precipitation  
Precipitation 0.00 in 0.01 in 0.76 in (1992)
Month to date precipitation T 0.09  
Year to date precipitation 2.20 3.78  
Snow  
Snow 0.00 in 0.00 in T in (1960)
Month to date snowfall 0.0 0.0  
Since 1 July snowfall 0.0 0.0  
Snow Depth 0.00 in    
Sea Level Pressure  
Sea Level Pressure 30.22 in    
Wind  
Wind Speed 7 mph (SSW)    
Max Wind Speed 12 mph    
Max Gust Speed 13 mph    
Visibility 10 miles    
Events      
T = Trace of Precipitation, MM = Missing Value Source: NWS Daily Summary

Daily Weather History Graph

Daily Weather History Graph

Search for Another Location

Airport or City:

Trip Planner

Search our weather history database for the weather conditions in past years. The results will help you decide how hot, cold, wet, or windy it might be!

Date:

Astronomy

Dec. 07, 2011 Rise Set
Actual Time 6:37 AM PST 4:26 PM PST
Civil Twilight 6:09 AM PST 4:54 PM PST
Nautical Twilight 5:37 AM PST 5:26 PM PST
Astronomical Twilight 5:06 AM PST 5:57 PM PST
Moon 2:27 PM PST (12/7) 3:59 AM PST (12/7)
Length of Visible Light 10h 44m
Length of Day
9h 48m
Waxing Gibbous, 93% of the Moon is Illuminated
Dec 7
Waxing Gibbous
Dec 10
Full
Dec 17
Last Quarter
Dec 24
New
Dec 31
First Quarter

Hourly Weather History & Observations

Time (PST) Temp. Windchill Dew Point Humidity Pressure Visibility Wind Dir Wind Speed Gust Speed Precip Events Conditions
12:56 AM 34.0 °F 26.6 °F 8.1 °F 34% 30.35 in 10.0 mi SSW 9.2 mph - N/A   Clear
1:56 AM 34.0 °F 26.6 °F 7.0 °F 32% 30.36 in 10.0 mi SSW 9.2 mph - N/A   Clear
2:56 AM 33.8 °F 28.6 °F 8.6 °F 35% 30.32 in 10.0 mi SSW 5.8 mph - N/A   Clear
3:56 AM 33.1 °F 28.7 °F 7.0 °F 34% 30.33 in 10.0 mi SSW 4.6 mph - N/A   Clear
4:56 AM 33.1 °F 26.9 °F 8.1 °F 35% 30.31 in 10.0 mi SW 6.9 mph - N/A   Clear
5:56 AM 32.0 °F 23.6 °F 7.0 °F 35% 30.32 in 10.0 mi SSW 10.4 mph - N/A   Clear
6:56 AM 33.1 °F 26.9 °F 8.1 °F 35% 30.33 in 10.0 mi SSW 6.9 mph - N/A   Clear
7:56 AM 36.0 °F 29.6 °F 7.0 °F 30% 30.32 in 10.0 mi SSW 8.1 mph - N/A   Clear
8:56 AM 41.0 °F 35.8 °F 7.0 °F 25% 30.32 in 10.0 mi SSW 8.1 mph - N/A   Clear
9:56 AM 45.0 °F 41.8 °F 7.0 °F 21% 30.31 in 10.0 mi South 5.8 mph - N/A   Clear
10:56 AM 48.0 °F - 8.1 °F 20% 30.27 in 10.0 mi South 3.5 mph - N/A   Clear
11:56 AM 50.0 °F - 8.1 °F 18% 30.23 in 10.0 mi Calm Calm - N/A   Clear
12:56 PM 51.1 °F - 8.1 °F 18% 30.20 in 10.0 mi South 3.5 mph - N/A   Clear
1:56 PM 53.1 °F - 9.0 °F 17% 30.16 in 10.0 mi Calm Calm - N/A   Clear
2:56 PM 53.1 °F - 10.0 °F 18% 30.15 in 10.0 mi SSE 4.6 mph - N/A   Clear
3:56 PM 53.1 °F - 10.0 °F 18% 30.14 in 10.0 mi SSW 4.6 mph - N/A   Clear
4:56 PM 51.1 °F - 10.9 °F 20% 30.13 in 10.0 mi SSW 8.1 mph - N/A   Clear
5:56 PM 48.9 °F - 10.9 °F 22% 30.13 in 10.0 mi SSW 9.2 mph - N/A   Clear
6:56 PM 45.0 °F 40.1 °F 10.9 °F 25% 30.13 in 10.0 mi SSW 9.2 mph - N/A   Clear
7:56 PM 44.6 °F 39.2 °F 10.4 °F 25% 30.10 in 10.0 mi SSW 10.4 mph - N/A   Clear
8:56 PM 42.1 °F 36.6 °F 10.9 °F 28% 30.11 in 10.0 mi South 9.2 mph - N/A   Clear
9:56 PM 41.0 °F 37.1 °F 12.0 °F 31% 30.10 in 10.0 mi SW 5.8 mph - N/A   Clear
10:56 PM 39.9 °F 33.9 °F 10.9 °F 31% 30.10 in 10.0 mi SSW 9.2 mph - N/A   Clear
11:56 PM 37.9 °F 33.5 °F 12.9 °F 36% 30.09 in 10.0 mi SSW 5.8 mph - N/A   Clear